This is the latest recevied weather packets stored in our database for station/object K3HW. If no packets are shown the sender has not sent any weather packets the latest 10 day(s).
| Time | Temp. | Humidity | Pressure | Rain* | Wind** | Luminosity | Snow |
|---|---|---|---|---|---|---|---|
| 1778138633 | 10° C | 91% | 1014.4 hPa | 1.78 mm | - | 0 W/m² | - |
| 1778138330 | 10° C | 91% | 1014.3 hPa | 0 mm | - | 0 W/m² | - |
| 1778138027 | 10° C | 91% | 1014.4 hPa | 1.27 mm | - | 0 W/m² | - |
| 1778137723 | 10° C | 91% | 1014.3 hPa | 1.27 mm | - | 0 W/m² | - |
| 1778137421 | 10° C | 91% | 1014.1 hPa | 0 mm | - | 0 W/m² | - |
| 1778137118 | 10° C | 91% | 1014.2 hPa | 1.78 mm | - | 0 W/m² | - |
| 1778136814 | 10° C | 90% | 1014.6 hPa | 1.78 mm | - | 0 W/m² | - |
| 1778136511 | 10° C | 90% | 1015.1 hPa | 1.78 mm | - | 0 W/m² | - |
| 1778136210 | 10° C | 90% | 1014.7 hPa | 1.78 mm | - | 0 W/m² | - |
| 1778135907 | 10° C | 90% | 1014.5 hPa | 1.27 mm | - | 0 W/m² | - |
| 1778135604 | 10° C | 90% | 1014.4 hPa | 1.27 mm | - | 0 W/m² | - |
| 1778135301 | 10° C | 90% | 1014.3 hPa | 3.05 mm | - | 0 W/m² | - |
| 1778134998 | 10° C | 90% | 1014.5 hPa | 1.78 mm | - | 0 W/m² | - |
| 1778134696 | 10° C | 90% | 1014.3 hPa | 1.27 mm | - | 0 W/m² | - |
| 1778134394 | 10° C | 90% | 1014.4 hPa | 3.05 mm | - | 0 W/m² | - |
| 1778134092 | 10° C | 90% | 1014.6 hPa | 1.78 mm | - | 0 W/m² | - |
| 1778133788 | 10° C | 90% | 1014.4 hPa | 1.27 mm | - | 0 W/m² | - |
| 1778133485 | 10° C | 90% | 1014.4 hPa | 3.05 mm | - | 0 W/m² | - |
| 1778133180 | 10° C | 90% | 1014.7 hPa | 3.05 mm | - | 0 W/m² | - |
| 1778132876 | 10° C | 89% | 1014.1 hPa | 3.05 mm | - | 0 W/m² | - |
| 1778132573 | 10.56° C | 89% | 1014.1 hPa | 3.05 mm | - | 0 W/m² | - |
| 1778132270 | 10.56° C | 89% | 1014.5 hPa | 3.05 mm | - | 0 W/m² | - |
| 1778131968 | 10.56° C | 89% | 1014.6 hPa | 3.05 mm | - | 0 W/m² | - |
| 1778131667 | 10.56° C | 89% | 1014.2 hPa | 4.83 mm | - | 0 W/m² | - |
| 1778131363 | 10.56° C | 88% | 1014 hPa | 4.83 mm | - | 0 W/m² | - |
* Rain latest hour (hover to see other rain measurements)
** Current wind speed in m/s (hover to see current wind gust speed)